User: anonymous   Login
Location: Newark
(54.3386°S, 169.8415°W)
Time: 20:03:35
(UTC+00:00)
Language:

Vanguard 2 Rocket - Orbit

View from above orbital plane
View from above orbital plane
View from above satellite
View from above satellite

Ground track
Ground track

The orbit data is extracted from the following two-line orbital elements,

1    12U 59001B   19290.53698195  .00000137  00000-0  58752-4 0  9997
2    12  32.9076 124.3393 1666832 233.5892 109.9353 11.44309733494609
Epoch (UTC): 17 October 2019 12:53:15
Eccentricity: 0.1666832
inclination: 32.9076°
perigee height: 554 km
apogee height: 3327 km
right ascension of ascending node: 124.3393°
argument of perigee: 233.5892°
revolutions per day: 11.44309733
mean anomaly at epoch: 109.9353°
orbit number at epoch: 49460

The dashed part of the orbit path shows where the satellite is in the earth's shadow,  

DLR